Regional Weather Roundup
Issued by NWS

Home | Current Version | Previous Version | Graphics & Text | Print | Product List | Glossary On
Versions: 1 2 3 4 5 6 7 8 9 10 11 12 13 14 15 16 17 18 19 20 21 22 23 24 25 26 27 28 29 30 31 32 33 34 35 36 37 38 39 40 41 42 43 44 45 46 47 48 49 50
108
ASUS45 KTFX 281610
RWRMT
MONTANA REGIONAL WEATHER ROUNDUP
NATIONAL WEATHER SERVICE GREAT FALLS MT
1000 AM MDT TUE MAR 28 2017

NOTE: "FAIR" INDICATES FEW OR NO CLOUDS BELOW 12000 FEET WITH NO
SIGNIFICANT WEATHER AND/OR OBSTRUCTIONS TO VISIBILITY.

MTZ001>007-043-281700-
WEST OF THE DIVIDE

CITY           SKY/WX    TMP DP  RH WIND       PRES   REMARKS
KALISPELL      CLOUDY    40  33  76 S10       30.18S
MISSOULA       CLOUDY    36  34  92 CALM      30.25R
BUTTE          SUNNY     36  21  54 NE5       30.17S
MULLAN PASS    FOG       26  26 100 VRB6      30.15R VSB 1/4 WCI  19
ANACONDA         N/A     39  18  41 W9        30.17F
DEER LODGE       N/A     37  25  60 CALM      30.21S
EUREKA           N/A     43  30  61 SE10      30.16R
HAMILTON         N/A     41  27  56 S5        30.23R
PLAINS           N/A     37  32  82 CALM      30.22R
RONAN            N/A     42  34  73 SE7       30.22S
$$

MTZ008-052>055-281700-
SOUTHWEST MONTANA

CITY           SKY/WX    TMP DP  RH WIND       PRES   REMARKS
BOZEMAN        SUNNY     41  25  53 CALM      30.19S
DILLON         CLOUDY    36  24  62 S7        30.17S WCI  30
W YELLOWSTONE  SUNNY     32  23  69 CALM      30.16S
ENNIS          SUNNY     36  25  64 CALM      30.21F
THREE FORKS      N/A     42 -25   5 CALM      30.15S
TWIN BRIDGES     N/A     38  22  52 S3        30.15R
$$

MTZ009-010-012-014-046-048-049-054-281700-
EAST SLOPES AND CENTRAL MONTANA

CITY           SKY/WX    TMP DP  RH WIND       PRES   REMARKS
CUT BANK       CLOUDY    43  25  49 W23G29    30.05F
GREAT FALLS    CLOUDY    43  27  53 SW20      30.11R
MALMSTROM AFB  CLOUDY    45  26  47 SW22      30.12R
HELENA         MOSUNNY   46  25  43 W14G21    30.17S
AUGUSTA          N/A     43  19  38 W20G26    30.09S
BOWMANS CRNR     N/A     41  24  51 SW17      30.10R
CHOTEAU          N/A     46  21  36 W17G24    30.09F
CONRAD           N/A     45  35  67 S2        30.09R
FAIRFIELD        N/A     45  20  37 SW14      30.09R
POWER            N/A     42  24  48 SW16      30.09R
RAYNESFORD       N/A     42  23  46 W17G26    30.12R
$$

MTZ011-013-016-021-045-047-050-051-281700-
NORTH CENTRAL MONTANA

CITY           SKY/WX    TMP DP  RH WIND       PRES   REMARKS
HAVRE          SUNNY     47  27  45 SW18      30.09R
LEWISTOWN      SUNNY     42  26  53 W10       30.11S
N BAR RANCH      N/A     45  21  39 NW13G21   30.13R
CHINOOK          N/A     48  27  43 W18       30.08S
DENTON           N/A     45  24  43 W22G28    30.08S
GEYSER           N/A     42  23  46 W17G26    30.11R
GRASS RANGE      N/A     44  24  46 W18       30.08S
JUDITH GAP       N/A     40  24  54 NE3       30.11S
STANFORD         N/A     42  25  51 W14       30.11R
WINIFRED         N/A     45  25  45 W14       30.10R
$$

MTZ017>020-022>027-061-062-281700-
NORTHEAST MONTANA

CITY           SKY/WX    TMP DP  RH WIND       PRES   REMARKS
GLASGOW        CLOUDY    37  33  85 SE7       30.08S WCI  32
SIDNEY         CLOUDY    41  38  89 NW7       30.07R
WOLF POINT     CLOUDY    38  35  89 N3        30.10R FOG
MALTA          SUNNY     43  36  75 W7        30.08S
PLENTYWOOD       N/A     36  36 100 CALM      30.08R
POPLAR           N/A     36  36 100 N6        30.09S WCI  31
SCOBEY           N/A     36  30  79 CALM      30.05R
$$

MTZ028>42-056>058-281700-
SOUTHCENTRAL AND SOUTHEAST MONTANA

CITY           SKY/WX    TMP DP  RH WIND       PRES   REMARKS
BAKER          CLOUDY    49  33  54 S9        30.06R
BILLINGS       PTSUNNY   42  33  70 W6        30.14R
LIVINGSTON     SUNNY     42  25  50 W12       30.15F
MILES CITY     LGT RAIN  46  38  73 NW16      30.07R
BIG TIMBER     SUNNY     43  25  49 W22G29    30.16R
FORSYTH          N/A     43  41  93 W7        30.11R
HARLOWTON        N/A     42  24  48 W25       30.12S
LAUREL           N/A     42  32  68 CALM      30.12F
ROUNDUP          N/A     42  35  76 S8        30.03R
$$

REGIONAL REPORTS...DAKOTAS

CITY           SKY/WX    TMP DP  RH WIND       PRES   REMARKS
WILLISTON      CLOUDY    41  36  82 E7        30.08R
MINOT          CLOUDY    37  37 100 SE10      30.12S FOG     WCI  30
DICKINSON      CLOUDY    38  34  85 E7        30.06R
BEACH            N/A    N/A N/A N/A MISG        N/A
TIOGA          CLOUDY    36  36 100 E13       30.08F FOG     WCI  27
WATFORD CITY   PTSUNNY   41  41 100 SE12      30.06S
BISMARCK       CLOUDY    38  36  92 E7        30.14R FOG
GRAND FORKS    MOSUNNY   42  35  76 NE7       30.19R
FARGO          CLOUDY    37  32  82 CALM      30.17S FOG
BUFFALO SD       N/A     47  38  71 E7        29.98R
RAPID CITY     LGT RAIN  41  38  89 SE8       30.02R
$$

REGIONAL REPORTS...WYOMING/IDAHO/WASHINGTON

CITY           SKY/WX    TMP DP  RH WIND       PRES   REMARKS
GILLETTE       CLOUDY    44  37  76 NW18G26   30.04R
SHERIDAN       RAIN      36  33  89 NW17      30.14R WCI  26
BUFFALO WY     LGT RAIN  38  33  82 NW22G32   30.08R WCI  27
CODY           CLOUDY    38  33  82 NE10      30.13R WCI  31
YELLOWSTONE LA   N/A     30  21  69 CALM      30.14S
IDAHO FALLS    MOSUNNY   36  29  75 SW5       30.19S
SALMON         CLOUDY    37  25  60 N5        30.21S
BOISE          SUNNY     40  32  73 CALM      30.27S
SPOKANE        CLOUDY    39  35  86 S14G23    30.23R WCI  31
$$

REGIONAL REPORTS...ALBERTA

CITY           SKY/WX    TMP DP  RH WIND       PRES   REMARKS
EDMONTON       FOG       28  28 100 E2        29.89F VSB 1/8
CALGARY        PTSUNNY   45  23  42 SW6       29.92F
LETHBRIDGE     PTSUNNY   48  23  37 W22G35    30.00F
MEDICINE HAT   MOSUNNY   50  28  43 SW18      29.99S
WATERTON GATE    N/A     39  23  52 SW16G24     N/A  WCI  30
CARDSTON         N/A     45  23  42 W10G18      N/A
MILK RIVER       N/A     46  25  42 W18         N/A
$$

REGIONAL REPORTS...SASKATCHEWAN

CITY           SKY/WX    TMP DP  RH WIND       PRES   REMARKS
SWIFT CURRENT  SUNNY     46  32  57 SW14      29.98S
REGINA         CLOUDY    36  34  93 SE17      30.11S WCI  25
SASKATOON      CLOUDY    37  34  87 SE15      30.07F WCI  28
CYPRESS HILLS    N/A     39  30  70 SW7         N/A
VAL MARIE        N/A     43  36  75 S9          N/A
ASSINIBOIA       N/A     36  32  87 SE9         N/A  WCI  29
$$




USA.gov is the U.S. government's official web portal to all federal, state and local government web resources and services.